STARLINK-1055 (44760 NORAD) Tracking and Keplerian Element Data

This shows tracking and keplerian element data for the satellite.

Feedback or suggestion? Click here.




ElementValue
Catalog44760
NameSTARLINK-1055
Epoch Orbit1036
Epoch Day17.91667824
Epoch Year2020
RAAN214.3519
Inclination53.0099
Eccentricity0.0001789
Argument of Perigee73.5929
Mean Anonmoly118.389
Mean Motion15.05586847
Decay Rate0.00027275
L11 44760U 19074AZ 20017.91667824 .00027275 00000-0 18835-2 0 9995
L22 44760 53.0099 214.3519 0001789 73.5929 118.3890 15.05586847 10363

Live tracking and technical data element details for STARLINK-1055 (NORAD 44760). STARLINK-1055 can be tracked NOW for your location showing map with azimuth and elevation plus other details from your city location.

Track the satellite on the map from your city or location and see movement details for azimuth, elevation, latitude, longitude, range, height, and movement on the map or in text.







IsCatalogInMostPopularTable: catalog: 44760, numindb: 11
Update: records affected: 1



GetName: 44760 STARLINK-1055

Hit Count: updated at: Mon, 20 Jan 2020 04:50:44 GMT